| time (UTC) | temp F | wind direction | speed MPH | gust MPH | rain 1hr in | rain 24hr in | rain mn in | humidity % | barometer mb |
| 20260902062542 | 80 | 210 | 1.0 | 3.0 | 0.00 | 0.00 | 0.00 | 71 | 1017.3 |
| 20260902061540 | 80 | 257 | 2.0 | 3.0 | 0.00 | 0.00 | 0.00 | 71 | 1017.4 |
| 20260902061039 | 79 | 263 | 1.0 | 1.0 | 0.00 | 0.00 | 0.00 | 72 | 1017.4 |
| 20260902060539 | 79 | 256 | 0.0 | 0.0 | 0.00 | 0.00 | 0.00 | 72 | 1017.4 |
| 20260902055538 | 79 | 195 | 0.0 | 0.0 | 0.00 | 0.00 | 0.00 | 71 | 1017.4 |
| 20260902055037 | 79 | 195 | 0.0 | 0.0 | 0.00 | 0.00 | 0.00 | 71 | 1017.4 |
| 20260902054537 | 79 | 195 | 0.0 | 0.0 | 0.00 | 0.00 | 0.00 | 71 | 1017.4 |
| 20260902054036 | 79 | 195 | 0.0 | 0.0 | 0.00 | 0.00 | 0.00 | 71 | 1017.4 |
| 20260902053034 | 79 | 195 | 0.0 | 0.0 | 0.00 | 0.00 | 0.00 | 71 | 1017.4 |
| 20260902052534 | 79 | 195 | 0.0 | 0.0 | 0.00 | 0.00 | 0.00 | 71 | 1017.4 |
| 20260902051532 | 80 | 195 | 0.0 | 0.0 | 0.00 | 0.00 | 0.00 | 70 | 1017.4 |
| 20260902050532 | 80 | 195 | 0.0 | 0.0 | 0.00 | 0.00 | 0.00 | 69 | 1017.3 |
| 20260902050031 | 80 | 195 | 0.0 | 0.0 | 0.00 | 0.00 | 0.00 | 69 | 1017.2 |
| 20260902045530 | 80 | 195 | 0.0 | 0.0 | 0.00 | 0.00 | 0.00 | 69 | 1017.3 |
| 20260902045030 | 80 | 195 | 0.0 | 0.0 | 0.00 | 0.00 | 0.00 | 69 | 1017.3 |
| 20260902044529 | 80 | 195 | 0.0 | 0.0 | 0.00 | 0.00 | 0.00 | 69 | 1017.3 |
| 20260902044030 | 80 | 195 | 0.0 | 0.0 | 0.00 | 0.00 | 0.00 | 69 | 1017.3 |
| 20260902043027 | 80 | 195 | 0.0 | 0.0 | 0.00 | 0.00 | 0.00 | 68 | 1017.4 |
| 20260902042526 | 80 | 195 | 0.0 | 0.0 | 0.00 | 0.00 | 0.00 | 68 | 1017.4 |
| 20260902042026 | 81 | 195 | 0.0 | 0.0 | 0.00 | 0.00 | 0.00 | 67 | 1017.4 |
| 20260902041525 | 81 | 195 | 0.0 | 0.0 | 0.00 | 0.00 | 0.00 | 67 | 1017.5 |
| 20260902041024 | 81 | 195 | 0.0 | 0.0 | 0.00 | 0.00 | 0.00 | 67 | 1017.5 |
| 20260902040523 | 81 | 195 | 0.0 | 0.0 | 0.00 | 0.00 | 0.00 | 66 | 1017.5 |
| 20260902040023 | 81 | 195 | 0.0 | 0.0 | 0.00 | 0.00 | 0.00 | 66 | 1017.5 |
| 20260902035522 | 82 | 195 | 0.0 | 0.0 | 0.00 | 0.00 | 0.00 | 65 | 1017.4 |
| 20260902035022 | 82 | 195 | 0.0 | 0.0 | 0.00 | 0.00 | 0.00 | 64 | 1017.5 |
| 20260902034521 | 82 | 195 | 0.0 | 0.0 | 0.00 | 0.00 | 0.00 | 64 | 1017.5 |
| 20260902034020 | 83 | 195 | 0.0 | 0.0 | 0.00 | 0.00 | 0.00 | 63 | 1017.4 |
| 20260902033520 | 83 | 195 | 0.0 | 0.0 | 0.00 | 0.00 | 0.00 | 62 | 1017.5 |
| 20260902033019 | 83 | 195 | 0.0 | 0.0 | 0.00 | 0.00 | 0.00 | 61 | 1017.4 |
| 20260902032519 | 84 | 195 | 0.0 | 0.0 | 0.00 | 0.00 | 0.00 | 60 | 1017.4 |
| 20260902032018 | 84 | 195 | 0.0 | 0.0 | 0.00 | 0.00 | 0.00 | 60 | 1017.4 |
| 20260902031518 | 84 | 195 | 0.0 | 0.0 | 0.00 | 0.00 | 0.00 | 59 | 1017.4 |
| 20260902031017 | 85 | 195 | 0.0 | 3.0 | 0.00 | 0.00 | 0.00 | 58 | 1017.3 |
| 20260902030516 | 85 | 245 | 2.0 | 3.0 | 0.00 | 0.00 | 0.00 | 57 | 1017.4 |
| 20260902030015 | 85 | 233 | 2.0 | 5.0 | 0.00 | 0.00 | 0.00 | 57 | 1017.3 |
| 20260902025014 | 85 | 248 | 2.0 | 5.0 | 0.00 | 0.00 | 0.00 | 57 | 1017.4 |
| 20260902024601 | 85 | 211 | 3.0 | 4.0 | 0.00 | 0.00 | 0.00 | 57 | 1017.2 |
| 20260902024514 | 85 | 211 | 3.0 | 4.0 | 0.00 | 0.00 | 0.00 | 57 | 1017.2 |
| 20260902024013 | 86 | 128 | 3.0 | 3.0 | 0.00 | 0.00 | 0.00 | 56 | 1017.2 |
| 20260902023513 | 86 | 184 | 1.0 | 3.0 | 0.00 | 0.00 | 0.00 | 56 | 1017.2 |
| 20260902023012 | 86 | 212 | 2.0 | 6.0 | 0.00 | 0.00 | 0.00 | 55 | 1017.3 |
| 20260902022512 | 86 | 245 | 2.0 | 4.0 | 0.00 | 0.00 | 0.00 | 55 | 1017.3 |
| 20260902022011 | 86 | 224 | 2.0 | 5.0 | 0.00 | 0.00 | 0.00 | 54 | 1017.3 |
| 20260902021511 | 86 | 239 | 4.0 | 5.0 | 0.00 | 0.00 | 0.00 | 54 | 1017.2 |
| 20260902021010 | 87 | 231 | 3.0 | 4.0 | 0.00 | 0.00 | 0.00 | 54 | 1017.3 |
| 20260902020009 | 87 | 211 | 3.0 | 3.0 | 0.00 | 0.00 | 0.00 | 53 | 1017.2 |
| 20260902015508 | 87 | 228 | 2.0 | 5.0 | 0.00 | 0.00 | 0.00 | 53 | 1017.2 |
| 20260902015008 | 87 | 226 | 2.0 | 3.0 | 0.00 | 0.00 | 0.00 | 53 | 1017.1 |
| 20260902014507 | 87 | 249 | 2.0 | 4.0 | 0.00 | 0.00 | 0.00 | 52 | 1017.1 |
| 20260902014007 | 88 | 271 | 0.0 | 6.0 | 0.00 | 0.00 | 0.00 | 52 | 1017.1 |
| 20260902013506 | 88 | 284 | 2.0 | 7.0 | 0.00 | 0.00 | 0.00 | 51 | 1017.0 |
| 20260902013006 | 88 | 245 | 4.0 | 6.0 | 0.00 | 0.00 | 0.00 | 51 | 1017.1 |
| 20260902012505 | 88 | 250 | 3.0 | 4.0 | 0.00 | 0.00 | 0.00 | 50 | 1016.9 |
| 20260902012005 | 88 | 271 | 0.0 | 4.0 | 0.00 | 0.00 | 0.00 | 50 | 1016.8 |
| 20260902011504 | 88 | 219 | 2.0 | 6.0 | 0.00 | 0.00 | 0.00 | 49 | 1016.8 |
| 20260902011004 | 88 | 219 | 3.0 | 8.0 | 0.00 | 0.00 | 0.00 | 49 | 1016.8 |
| 20260902010503 | 88 | 201 | 5.0 | 6.0 | 0.00 | 0.00 | 0.00 | 49 | 1016.8 |
| 20260902010003 | 88 | 204 | 2.0 | 7.0 | 0.00 | 0.00 | 0.00 | 49 | 1016.7 |
| 20260902005502 | 89 | 165 | 4.0 | 7.0 | 0.00 | 0.00 | 0.00 | 49 | 1016.7 |
| 20260902005002 | 89 | 201 | 4.0 | 7.0 | 0.00 | 0.00 | 0.00 | 49 | 1016.6 |
| 20260902004501 | 89 | 203 | 5.0 | 8.0 | 0.00 | 0.00 | 0.00 | 49 | 1016.6 |
| 20260902004001 | 89 | 218 | 3.0 | 5.0 | 0.00 | 0.00 | 0.00 | 48 | 1016.6 |
| 20260902003000 | 89 | 240 | 2.0 | 4.0 | 0.00 | 0.00 | 0.00 | 48 | 1016.6 |
| 20260902002459 | 89 | 201 | 2.0 | 5.0 | 0.00 | 0.00 | 0.00 | 48 | 1016.5 |
| 20260902001958 | 90 | 210 | 2.0 | 5.0 | 0.00 | 0.00 | 0.00 | 47 | 1016.6 |
| 20260902001458 | 90 | 224 | 3.0 | 7.0 | 0.00 | 0.00 | 0.00 | 46 | 1016.7 |
| 20260902000957 | 90 | 222 | 2.0 | 7.0 | 0.00 | 0.00 | 0.00 | 46 | 1016.7 |
| 20260902000458 | 90 | 215 | 3.0 | 7.0 | 0.00 | 0.00 | 0.00 | 46 | 1016.8 |
| 20260901235956 | 90 | 224 | 4.0 | 4.0 | 0.00 | 0.00 | 0.00 | 46 | 1016.8 |
| 20260901235456 | 91 | 191 | 3.0 | 4.0 | 0.00 | 0.00 | 0.00 | 46 | 1016.8 |
| 20260901234955 | 91 | 215 | 3.0 | 5.0 | 0.00 | 0.00 | 0.00 | 45 | 1016.8 |
| 20260901234455 | 91 | 225 | 3.0 | 6.0 | 0.00 | 0.00 | 0.00 | 45 | 1016.8 |
| 20260901233954 | 91 | 264 | 3.0 | 9.0 | 0.00 | 0.00 | 0.00 | 45 | 1016.8 |
| 20260901233454 | 91 | 218 | 6.0 | 8.0 | 0.00 | 0.00 | 0.00 | 45 | 1016.9 |
| 20260901232953 | 92 | 243 | 6.0 | 9.0 | 0.00 | 0.00 | 0.00 | 45 | 1016.9 |
| 20260901232453 | 92 | 242 | 5.0 | 8.0 | 0.00 | 0.00 | 0.00 | 44 | 1016.9 |
| 20260901231952 | 92 | 256 | 6.0 | 8.0 | 0.00 | 0.00 | 0.00 | 44 | 1016.9 |
| 20260901231452 | 92 | 250 | 4.0 | 10.0 | 0.00 | 0.00 | 0.00 | 43 | 1016.9 |
| 20260901230951 | 92 | 224 | 8.0 | 8.0 | 0.00 | 0.00 | 0.00 | 42 | 1016.9 |
| 20260901230451 | 93 | 238 | 3.0 | 7.0 | 0.00 | 0.00 | 0.00 | 43 | 1016.9 |
| 20260901225950 | 93 | 259 | 5.0 | 9.0 | 0.00 | 0.00 | 0.00 | 42 | 1017.0 |
| 20260901225450 | 93 | 316 | 3.0 | 8.0 | 0.00 | 0.00 | 0.00 | 42 | 1016.9 |
| 20260901224949 | 93 | 253 | 4.0 | 9.0 | 0.00 | 0.00 | 0.00 | 41 | 1016.9 |
| 20260901224449 | 93 | 260 | 6.0 | 9.0 | 0.00 | 0.00 | 0.00 | 41 | 1016.9 |
| 20260901223948 | 93 | 243 | 4.0 | 9.0 | 0.00 | 0.00 | 0.00 | 41 | 1016.9 |
| 20260901223447 | 93 | 231 | 6.0 | 11.0 | 0.00 | 0.00 | 0.00 | 41 | 1016.9 |
| 20260901222947 | 93 | 267 | 7.0 | 11.0 | 0.00 | 0.00 | 0.00 | 41 | 1016.9 |
| 20260901222446 | 94 | 212 | 3.0 | 9.0 | 0.00 | 0.00 | 0.00 | 41 | 1016.8 |
| 20260901220945 | 94 | 225 | 5.0 | 10.0 | 0.00 | 0.00 | 0.00 | 41 | 1016.8 |
| 20260901220444 | 93 | 222 | 8.0 | 11.0 | 0.00 | 0.00 | 0.00 | 40 | 1016.8 |
| 20260901215944 | 93 | 246 | 6.0 | 11.0 | 0.00 | 0.00 | 0.00 | 39 | 1016.8 |
| 20260901215443 | 94 | 253 | 7.0 | 12.0 | 0.00 | 0.00 | 0.00 | 40 | 1016.8 |
| 20260901214943 | 94 | 290 | 8.0 | 10.0 | 0.00 | 0.00 | 0.00 | 39 | 1016.8 |
| 20260901214442 | 94 | 228 | 5.0 | 10.0 | 0.00 | 0.00 | 0.00 | 39 | 1016.7 |
| 20260901213942 | 94 | 328 | 6.0 | 12.0 | 0.00 | 0.00 | 0.00 | 39 | 1016.7 |
| 20260901213441 | 94 | 256 | 8.0 | 9.0 | 0.00 | 0.00 | 0.00 | 40 | 1016.7 |
| 20260901212941 | 94 | 243 | 4.0 | 14.0 | 0.00 | 0.00 | 0.00 | 40 | 1016.7 |
| 20260901212440 | 93 | 262 | 11.0 | 12.0 | 0.00 | 0.00 | 0.00 | 39 | 1016.8 |
| 20260901211940 | 94 | 207 | 5.0 | 13.0 | 0.00 | 0.00 | 0.00 | 40 | 1016.8 |
| 20260901211439 | 93 | 233 | 7.0 | 15.0 | 0.00 | 0.00 | 0.00 | 40 | 1016.8 |
| 20260901210939 | 94 | 260 | 8.0 | 16.0 | 0.00 | 0.00 | 0.00 | 40 | 1016.7 |
| 20260901210438 | 94 | 250 | 5.0 | 12.0 | 0.00 | 0.00 | 0.00 | 40 | 1016.8 |
| 20260901205938 | 94 | 197 | 7.0 | 16.0 | 0.00 | 0.00 | 0.00 | 41 | 1016.8 |
| 20260901205437 | 94 | 239 | 6.0 | 14.0 | 0.00 | 0.00 | 0.00 | 40 | 1016.8 |
| 20260901204936 | 94 | 229 | 6.0 | 10.0 | 0.00 | 0.00 | 0.00 | 40 | 1016.9 |
| 20260901204436 | 94 | 232 | 5.0 | 12.0 | 0.00 | 0.00 | 0.00 | 41 | 1016.9 |
| 20260901203935 | 94 | 212 | 9.0 | 14.0 | 0.00 | 0.00 | 0.00 | 41 | 1016.9 |
| 20260901203435 | 93 | 208 | 6.0 | 14.0 | 0.00 | 0.00 | 0.00 | 41 | 1016.9 |
| 20260901202934 | 93 | 233 | 8.0 | 14.0 | 0.00 | 0.00 | 0.00 | 42 | 1016.9 |
| 20260901202434 | 94 | 231 | 8.0 | 14.0 | 0.00 | 0.00 | 0.00 | 40 | 1016.9 |
| 20260901201933 | 93 | 203 | 4.0 | 14.0 | 0.00 | 0.00 | 0.00 | 42 | 1016.9 |
| 20260901201433 | 93 | 236 | 10.0 | 15.0 | 0.00 | 0.00 | 0.00 | 41 | 1016.9 |
| 20260901200432 | 94 | 201 | 6.0 | 17.0 | 0.00 | 0.00 | 0.00 | 43 | 1016.9 |
| 20260901195931 | 93 | 232 | 11.0 | 17.0 | 0.00 | 0.00 | 0.00 | 41 | 1017.0 |
| 20260901195431 | 94 | 222 | 7.0 | 16.0 | 0.00 | 0.00 | 0.00 | 43 | 1017.0 |
| 20260901194930 | 93 | 211 | 8.0 | 17.0 | 0.00 | 0.00 | 0.00 | 42 | 1017.0 |
| 20260901194431 | 93 | 194 | 11.0 | 14.0 | 0.00 | 0.00 | 0.00 | 41 | 1017.1 |
| 20260901193928 | 93 | 218 | 7.0 | 14.0 | 0.00 | 0.00 | 0.00 | 41 | 1017.2 |
| 20260901192927 | 93 | 204 | 7.0 | 14.0 | 0.00 | 0.00 | 0.00 | 42 | 1017.2 |
| 20260901192427 | 92 | 204 | 9.0 | 14.0 | 0.00 | 0.00 | 0.00 | 43 | 1017.3 |
| 20260901191926 | 93 | 232 | 8.0 | 16.0 | 0.00 | 0.00 | 0.00 | 43 | 1017.3 |
| 20260901191425 | 93 | 219 | 8.0 | 15.0 | 0.00 | 0.00 | 0.00 | 42 | 1017.3 |
| 20260901190925 | 93 | 180 | 8.0 | 13.0 | 0.00 | 0.00 | 0.00 | 43 | 1017.4 |
| 20260901190424 | 93 | 215 | 6.0 | 17.0 | 0.00 | 0.00 | 0.00 | 44 | 1017.5 |
| 20260901185924 | 93 | 239 | 7.0 | 16.0 | 0.00 | 0.00 | 0.00 | 44 | 1017.5 |
| 20260901185423 | 93 | 169 | 7.0 | 11.0 | 0.00 | 0.00 | 0.00 | 45 | 1017.5 |
| 20260901184923 | 93 | 205 | 4.0 | 13.0 | 0.00 | 0.00 | 0.00 | 45 | 1017.6 |
| 20260901184422 | 93 | 239 | 7.0 | 13.0 | 0.00 | 0.00 | 0.00 | 44 | 1017.6 |
| 20260901183922 | 92 | 248 | 8.0 | 12.0 | 0.00 | 0.00 | 0.00 | 42 | 1017.7 |
| 20260901183421 | 92 | 219 | 6.0 | 13.0 | 0.00 | 0.00 | 0.00 | 47 | 1017.6 |
| 20260901182921 | 92 | 264 | 7.0 | 14.0 | 0.00 | 0.00 | 0.00 | 46 | 1017.7 |
| 20260901182420 | 92 | 210 | 8.0 | 13.0 | 0.00 | 0.00 | 0.00 | 45 | 1017.7 |
| 20260901181920 | 92 | 233 | 9.0 | 16.0 | 0.00 | 0.00 | 0.00 | 43 | 1017.7 |
| 20260901181419 | 92 | 218 | 7.0 | 12.0 | 0.00 | 0.00 | 0.00 | 42 | 1017.8 |
| 20260901180919 | 91 | 236 | 8.0 | 11.0 | 0.00 | 0.00 | 0.00 | 45 | 1017.8 |
| 20260901180418 | 91 | 214 | 6.0 | 13.0 | 0.00 | 0.00 | 0.00 | 45 | 1017.8 |
| 20260901175918 | 91 | 255 | 7.0 | 12.0 | 0.00 | 0.00 | 0.00 | 45 | 1017.9 |
| 20260901175417 | 91 | 240 | 8.0 | 15.0 | 0.00 | 0.00 | 0.00 | 45 | 1017.9 |
| 20260901174917 | 91 | 183 | 5.0 | 13.0 | 0.00 | 0.00 | 0.00 | 46 | 1017.9 |
| 20260901174416 | 91 | 211 | 8.0 | 15.0 | 0.00 | 0.00 | 0.00 | 45 | 1018.0 |
| 20260901173915 | 90 | 256 | 9.0 | 13.0 | 0.00 | 0.00 | 0.00 | 46 | 1018.0 |
| 20260901173415 | 90 | 235 | 9.0 | 13.0 | 0.00 | 0.00 | 0.00 | 47 | 1018.1 |
| 20260901172914 | 91 | 212 | 10.0 | 13.0 | 0.00 | 0.00 | 0.00 | 48 | 1018.1 |
| 20260901171913 | 91 | 262 | 4.0 | 10.0 | 0.00 | 0.00 | 0.00 | 47 | 1018.2 |
| 20260901171413 | 89 | 208 | 8.0 | 11.0 | 0.00 | 0.00 | 0.00 | 49 | 1018.2 |
| 20260901170912 | 90 | 221 | 5.0 | 10.0 | 0.00 | 0.00 | 0.00 | 49 | 1018.2 |
| 20260901170412 | 89 | 270 | 7.0 | 13.0 | 0.00 | 0.00 | 0.00 | 51 | 1018.3 |
| 20260901165911 | 89 | 215 | 10.0 | 14.0 | 0.00 | 0.00 | 0.00 | 51 | 1018.4 |
| 20260901165411 | 89 | 211 | 8.0 | 12.0 | 0.00 | 0.00 | 0.00 | 53 | 1018.4 |
| 20260901164910 | 88 | 231 | 8.0 | 11.0 | 0.00 | 0.00 | 0.00 | 54 | 1018.6 |
| 20260901164410 | 88 | 222 | 5.0 | 12.0 | 0.00 | 0.00 | 0.00 | 53 | 1018.6 |
| 20260901163909 | 88 | 231 | 5.0 | 10.0 | 0.00 | 0.00 | 0.00 | 52 | 1018.6 |
| 20260901163409 | 88 | 249 | 4.0 | 11.0 | 0.00 | 0.00 | 0.00 | 53 | 1018.6 |
| 20260901162908 | 88 | 228 | 6.0 | 11.0 | 0.00 | 0.00 | 0.00 | 55 | 1018.7 |
| 20260901162408 | 88 | 195 | 8.0 | 12.0 | 0.00 | 0.00 | 0.00 | 55 | 1018.7 |
| 20260901161907 | 87 | 215 | 7.0 | 12.0 | 0.00 | 0.00 | 0.00 | 55 | 1018.7 |
| 20260901161407 | 87 | 207 | 8.0 | 14.0 | 0.00 | 0.00 | 0.00 | 56 | 1018.7 |
| 20260901160906 | 87 | 256 | 10.0 | 12.0 | 0.00 | 0.00 | 0.00 | 56 | 1018.6 |
| 20260901160405 | 87 | 203 | 7.0 | 15.0 | 0.00 | 0.00 | 0.00 | 56 | 1018.7 |
| 20260901155905 | 87 | 228 | 9.0 | 18.0 | 0.00 | 0.00 | 0.00 | 56 | 1018.8 |
| 20260901155404 | 86 | 248 | 5.0 | 13.0 | 0.00 | 0.00 | 0.00 | 57 | 1018.9 |
| 20260901154904 | 86 | 252 | 8.0 | 13.0 | 0.00 | 0.00 | 0.00 | 58 | 1018.9 |
| 20260901154403 | 86 | 225 | 8.0 | 13.0 | 0.00 | 0.00 | 0.00 | 57 | 1019.0 |
| 20260901153903 | 86 | 224 | 8.0 | 12.0 | 0.00 | 0.00 | 0.00 | 57 | 1019.0 |
| 20260901153402 | 86 | 75 | 5.0 | 14.0 | 0.00 | 0.00 | 0.00 | 59 | 1019.0 |
| 20260901152902 | 86 | 187 | 7.0 | 12.0 | 0.00 | 0.00 | 0.00 | 59 | 1019.0 |
| 20260901151901 | 85 | 219 | 5.0 | 12.0 | 0.00 | 0.00 | 0.00 | 60 | 1018.9 |
| 20260901151400 | 85 | 238 | 7.0 | 13.0 | 0.00 | 0.00 | 0.00 | 60 | 1019.0 |
| 20260901150900 | 84 | 233 | 9.0 | 14.0 | 0.00 | 0.00 | 0.00 | 60 | 1018.9 |
| 20260901145859 | 84 | 231 | 8.0 | 11.0 | 0.00 | 0.00 | 0.00 | 60 | 1019.0 |
| 20260901145358 | 84 | 205 | 8.0 | 12.0 | 0.00 | 0.00 | 0.00 | 61 | 1019.0 |
| 20260901144858 | 84 | 200 | 5.0 | 11.0 | 0.00 | 0.00 | 0.00 | 61 | 1019.1 |
| 20260901144357 | 84 | 211 | 7.0 | 12.0 | 0.00 | 0.00 | 0.00 | 62 | 1019.1 |
| 20260901143857 | 83 | 246 | 4.0 | 11.0 | 0.00 | 0.00 | 0.00 | 63 | 1019.0 |
| 20260901142855 | 82 | 228 | 6.0 | 12.0 | 0.00 | 0.00 | 0.00 | 63 | 1019.0 |
| 20260901142355 | 82 | 224 | 6.0 | 8.0 | 0.00 | 0.00 | 0.00 | 64 | 1019.1 |
| 20260901141854 | 82 | 252 | 5.0 | 9.0 | 0.00 | 0.00 | 0.00 | 64 | 1019.1 |
| 20260901141354 | 82 | 273 | 6.0 | 11.0 | 0.00 | 0.00 | 0.00 | 65 | 1019.1 |
| 20260901140853 | 81 | 250 | 9.0 | 13.0 | 0.00 | 0.00 | 0.00 | 66 | 1019.1 |
| 20260901140353 | 81 | 262 | 4.0 | 10.0 | 0.00 | 0.00 | 0.00 | 67 | 1019.1 |
| 20260901135852 | 81 | 248 | 5.0 | 8.0 | 0.00 | 0.00 | 0.00 | 67 | 1019.2 |
| 20260901135352 | 81 | 224 | 5.0 | 9.0 | 0.00 | 0.00 | 0.00 | 67 | 1019.1 |
| 20260901134851 | 81 | 257 | 6.0 | 8.0 | 0.00 | 0.00 | 0.00 | 67 | 1019.1 |
| 20260901134351 | 80 | 231 | 6.0 | 8.0 | 0.00 | 0.00 | 0.00 | 68 | 1019.2 |
| 20260901133850 | 80 | 225 | 5.0 | 8.0 | 0.00 | 0.00 | 0.00 | 68 | 1019.1 |
| 20260901133350 | 80 | 217 | 6.0 | 10.0 | 0.00 | 0.00 | 0.00 | 69 | 1019.2 |
| 20260901132849 | 80 | 250 | 5.0 | 8.0 | 0.00 | 0.00 | 0.00 | 69 | 1019.1 |
| 20260901132349 | 80 | 248 | 5.0 | 10.0 | 0.00 | 0.00 | 0.00 | 69 | 1019.2 |
| 20260901131848 | 79 | 242 | 7.0 | 9.0 | 0.00 | 0.00 | 0.00 | 69 | 1019.2 |
| 20260901131348 | 79 | 207 | 5.0 | 9.0 | 0.00 | 0.00 | 0.00 | 69 | 1019.2 |
| 20260901130347 | 79 | 246 | 7.0 | 11.0 | 0.00 | 0.00 | 0.00 | 70 | 1019.2 |
| 20260901125846 | 79 | 233 | 5.0 | 8.0 | 0.00 | 0.00 | 0.00 | 72 | 1019.1 |
| 20260901125345 | 78 | 242 | 3.0 | 6.0 | 0.00 | 0.00 | 0.00 | 74 | 1019.2 |
| 20260901124845 | 78 | 211 | 3.0 | 7.0 | 0.00 | 0.00 | 0.00 | 75 | 1019.3 |
| 20260901124345 | 77 | 166 | 3.0 | 4.0 | 0.00 | 0.00 | 0.00 | 76 | 1019.3 |
| 20260901123343 | 77 | 181 | 3.0 | 5.0 | 0.00 | 0.00 | 0.00 | 77 | 1019.3 |
| 20260901122843 | 77 | 193 | 4.0 | 7.0 | 0.00 | 0.00 | 0.00 | 78 | 1019.1 |
| 20260901122342 | 76 | 180 | 4.0 | 6.0 | 0.00 | 0.00 | 0.00 | 78 | 1019.1 |
| 20260901121842 | 76 | 148 | 3.0 | 4.0 | 0.00 | 0.00 | 0.00 | 79 | 1019.2 |
| 20260901121341 | 76 | 183 | 2.0 | 5.0 | 0.00 | 0.00 | 0.00 | 79 | 1019.2 |
| 20260901120841 | 76 | 188 | 3.0 | 5.0 | 0.00 | 0.00 | 0.00 | 79 | 1019.2 |
| 20260901120340 | 76 | 195 | 3.0 | 5.0 | 0.00 | 0.00 | 0.00 | 80 | 1019.1 |
| 20260901115338 | 75 | 174 | 1.0 | 3.0 | 0.00 | 0.00 | 0.00 | 81 | 1018.9 |
| 20260901114838 | 75 | 150 | 0.0 | 0.0 | 0.00 | 0.00 | 0.00 | 82 | 1018.9 |
| 20260901114337 | 75 | 150 | 0.0 | 0.0 | 0.00 | 0.00 | 0.00 | 82 | 1018.8 |
| 20260901113833 | 75 | 150 | 0.0 | 0.0 | 0.00 | 0.00 | 0.00 | 82 | 1018.7 |
| 20260901113332 | 75 | 150 | 0.0 | 1.0 | 0.00 | 0.00 | 0.00 | 83 | 1018.6 |
| 20260901112832 | 75 | 150 | 0.0 | 2.0 | 0.00 | 0.00 | 0.00 | 83 | 1018.4 |
| 20260901112331 | 75 | 94 | 0.0 | 0.0 | 0.00 | 0.00 | 0.00 | 83 | 1018.3 |
| 20260901111831 | 75 | 94 | 0.0 | 0.0 | 0.00 | 0.00 | 0.00 | 83 | 1018.3 |
| 20260901111330 | 75 | 94 | 0.0 | 0.0 | 0.00 | 0.00 | 0.00 | 84 | 1018.2 |
| 20260901110830 | 75 | 94 | 0.0 | 0.0 | 0.00 | 0.00 | 0.00 | 84 | 1018.2 |
| 20260901110329 | 75 | 94 | 0.0 | 0.0 | 0.00 | 0.00 | 0.00 | 84 | 1018.2 |
| 20260901105828 | 75 | 94 | 0.0 | 0.0 | 0.00 | 0.00 | 0.00 | 84 | 1018.2 |
| 20260901105328 | 75 | 39 | 0.0 | 0.0 | 0.00 | 0.00 | 0.00 | 84 | 1018.1 |
| 20260901104828 | 75 | 39 | 0.0 | 0.0 | 0.00 | 0.00 | 0.00 | 84 | 1018.2 |
| 20260901104326 | 75 | 39 | 0.0 | 0.0 | 0.00 | 0.00 | 0.00 | 84 | 1018.1 |
| 20260901103823 | 75 | 39 | 0.0 | 0.0 | 0.00 | 0.00 | 0.00 | 84 | 1018.0 |
| 20260901103323 | 75 | 39 | 0.0 | 0.0 | 0.00 | 0.00 | 0.00 | 84 | 1018.1 |
| 20260901102822 | 75 | 39 | 0.0 | 0.0 | 0.00 | 0.00 | 0.00 | 83 | 1018.1 |
| 20260901102322 | 75 | 39 | 0.0 | 0.0 | 0.00 | 0.00 | 0.00 | 83 | 1018.0 |
| 20260901101821 | 75 | 39 | 0.0 | 0.0 | 0.00 | 0.00 | 0.00 | 83 | 1017.9 |
| 20260901101321 | 75 | 39 | 0.0 | 0.0 | 0.00 | 0.00 | 0.00 | 82 | 1017.9 |
| 20260901100820 | 76 | 39 | 0.0 | 0.0 | 0.00 | 0.00 | 0.00 | 81 | 1017.9 |
| 20260901100320 | 76 | 129 | 0.0 | 0.0 | 0.00 | 0.00 | 0.00 | 81 | 1017.8 |
| 20260901095818 | 76 | 129 | 0.0 | 1.0 | 0.00 | 0.00 | 0.00 | 81 | 1017.8 |
| 20260901095318 | 76 | 125 | 0.0 | 3.0 | 0.00 | 0.00 | 0.00 | 81 | 1017.7 |
| 20260901094814 | 76 | 160 | 0.0 | 0.0 | 0.00 | 0.00 | 0.00 | 81 | 1017.7 |
| 20260901093813 | 76 | 142 | 0.0 | 0.0 | 0.00 | 0.00 | 0.00 | 81 | 1017.7 |
| 20260901093314 | 76 | 142 | 0.0 | 2.0 | 0.00 | 0.00 | 0.00 | 81 | 1017.8 |
| 20260901092812 | 76 | 150 | 2.0 | 3.0 | 0.00 | 0.00 | 0.00 | 81 | 1017.8 |
| 20260901092311 | 76 | 165 | 0.0 | 0.0 | 0.00 | 0.00 | 0.00 | 81 | 1017.8 |
| 20260901091811 | 76 | 165 | 0.0 | 2.0 | 0.00 | 0.00 | 0.00 | 82 | 1017.8 |
| 20260901091310 | 76 | 186 | 1.0 | 2.0 | 0.00 | 0.00 | 0.00 | 82 | 1017.7 |
| 20260901090810 | 76 | 233 | 0.0 | 0.0 | 0.00 | 0.00 | 0.00 | 82 | 1017.7 |
| 20260901090309 | 76 | 233 | 0.0 | 0.0 | 0.00 | 0.00 | 0.00 | 82 | 1017.7 |
| 20260901085809 | 76 | 233 | 0.0 | 0.0 | 0.00 | 0.00 | 0.00 | 81 | 1017.7 |
| 20260901085308 | 76 | 233 | 0.0 | 0.0 | 0.00 | 0.00 | 0.00 | 81 | 1017.7 |
| 20260901084808 | 76 | 233 | 0.0 | 0.0 | 0.00 | 0.00 | 0.00 | 81 | 1017.6 |
| 20260901084307 | 76 | 233 | 0.0 | 1.0 | 0.00 | 0.00 | 0.00 | 81 | 1017.5 |
| 20260901083806 | 76 | 226 | 0.0 | 0.0 | 0.00 | 0.00 | 0.00 | 81 | 1017.6 |
| 20260901083305 | 76 | 226 | 0.0 | 0.0 | 0.00 | 0.00 | 0.00 | 80 | 1017.6 |
| 20260901082805 | 76 | 226 | 0.0 | 0.0 | 0.00 | 0.00 | 0.00 | 80 | 1017.5 |
| 20260901082306 | 76 | 226 | 0.0 | 0.0 | 0.00 | 0.00 | 0.00 | 80 | 1017.5 |
| 20260901081804 | 76 | 226 | 0.0 | 1.0 | 0.00 | 0.00 | 0.00 | 81 | 1017.5 |
| 20260901080301 | 76 | 13 | 0.0 | 0.0 | 0.00 | 0.00 | 0.00 | 82 | 1017.5 |
| 20260901075801 | 76 | 13 | 0.0 | 0.0 | 0.00 | 0.00 | 0.00 | 82 | 1017.5 |
| 20260901075259 | 76 | 13 | 0.0 | 0.0 | 0.00 | 0.00 | 0.00 | 82 | 1017.5 |
| 20260901074759 | 76 | 13 | 0.0 | 0.0 | 0.00 | 0.00 | 0.00 | 82 | 1017.6 |
| 20260901074258 | 76 | 13 | 0.0 | 0.0 | 0.00 | 0.00 | 0.00 | 82 | 1017.5 |
| 20260901073758 | 76 | 13 | 0.0 | 0.0 | 0.00 | 0.00 | 0.00 | 82 | 1017.5 |
| 20260901073257 | 76 | 13 | 0.0 | 0.0 | 0.00 | 0.00 | 0.00 | 81 | 1017.5 |
| 20260901072756 | 77 | 13 | 0.0 | 0.0 | 0.00 | 0.00 | 0.00 | 79 | 1017.4 |
| 20260901072256 | 77 | 13 | 0.0 | 0.0 | 0.00 | 0.00 | 0.00 | 79 | 1017.4 |
| 20260901072006 | 77 | 13 | 0.0 | 0.0 | 0.00 | 0.00 | 0.00 | 78 | 1017.4 |
| 20260901071755 | 77 | 13 | 0.0 | 0.0 | 0.00 | 0.00 | 0.00 | 78 | 1017.4 |
| 20260901071255 | 77 | 13 | 0.0 | 0.0 | 0.00 | 0.00 | 0.00 | 77 | 1017.4 |
| 20260901070754 | 78 | 13 | 0.0 | 0.0 | 0.00 | 0.00 | 0.00 | 76 | 1017.4 |
| 20260901070254 | 78 | 13 | 0.0 | 0.0 | 0.00 | 0.00 | 0.00 | 75 | 1017.5 |
| 20260901065753 | 78 | 13 | 0.0 | 0.0 | 0.00 | 0.00 | 0.00 | 74 | 1017.5 |
| 20260901065253 | 79 | 13 | 0.0 | 0.0 | 0.00 | 0.00 | 0.00 | 73 | 1017.5 |
| 20260901064752 | 79 | 13 | 0.0 | 0.0 | 0.00 | 0.00 | 0.00 | 72 | 1017.5 |
| 20260901064252 | 80 | 13 | 0.0 | 1.0 | 0.00 | 0.00 | 0.00 | 71 | 1017.5 |
| 20260901063751 | 80 | 259 | 0.0 | 4.0 | 0.00 | 0.00 | 0.00 | 70 | 1017.4 |
| 20260901063251 | 80 | 243 | 1.0 | 2.0 | 0.00 | 0.00 | 0.00 | 70 | 1017.3 |